Regional Weather Roundup
Issued by NWS Kansas City/Pleasant Hill, MO

Home | Current Version | Previous Version | Graphics & Text | Print | Product List | Glossary Off
Versions: 1 2 3 4 5 6 7 8 9 10 11 12 13 14 15 16 17 18 19 20 21 22 23 24 25 26 27 28

000
ASUS43 KEAX 040510
RWREAX

WEATHER ROUNDUP FOR EASTERN KANSAS AND NORTHWEST MISSOURI
NATIONAL WEATHER SERVICE KANSAS CITY/PLEASANT HILL MO
1100 PM CST SAT DEC 03 2016

KSZ040-057-103>105-MOZ028-029-037-043-040600-
...KANSAS CITY METROPOLITAN AREA...

CITY           SKY/WX    TMP DP  RH WIND       PRES   REMARKS
K.C. INTL      LGT RAIN  42  36  79 S7        30.10S
K.C. DOWNTOWN  LGT RAIN  44  39  82 S9        30.11S
LEES SUMMIT    LGT RAIN  42  38  85 S8        30.11F
OLATHE - IXD   LGT RAIN  41  39  93 SE8       30.11S
OLATHE - OJC   LGT RAIN  40  38  93 S7        30.10F
LAWRENCE       LGT RAIN  41  40  96 SE5       30.11S FOG

$$

MOZ001>008-011>017-020>025-030>033-038>040-044>046-053-054-040600-
...NORTHERN AND CENTRAL MISSOURI...

CITY           SKY/WX    TMP DP  RH WIND       PRES   REMARKS
ST. JOSEPH     LGT RAIN  39  37  92 NW5       30.12S
MOSBY          CLOUDY    43  34  70 CALM      30.11F
WARRENSBURG    CLOUDY    41  36  81 SE6       30.12S
WHITEMAN AFB   CLOUDY    42  38  84 S7        30.11F
CLINTON        CLOUDY    41  37  87 SE6       30.14S
SEDALIA        CLOUDY    43  33  68 SE8       30.14F
WARSAW         NOT AVBL
CHILLICOTHE      N/A     42  32  67 SE6       30.14F
KIRKSVILLE     CLOUDY    39  32  76 SE12      30.16F WCI  32

$$

MOZ041-047>049-056>058-063>065-088>090-097-040600-
...EASTERN AND SOUTHERN MISSOURI...

CITY           SKY/WX    TMP DP  RH WIND       PRES   REMARKS
ST. LOUIS INTL CLOUDY    41  32  70 E7        30.24S
SPIRIT OF STL  CLOUDY    40  33  76 E5        30.22F
COLUMBIA       LGT RAIN  39  34  82 SE8       30.17F WCI  33
JEFFERSON CITY LGT RAIN  41  34  76 E7        30.18F
ROLLA          LGT RAIN  38  33  82 SE7       30.16F WCI  33
OSAGE BEACH    LGT RAIN  39  36  89 E5        30.17F
SPRINGFIELD    CLOUDY    39  36  89 SE13      30.09F WCI  31
BRANSON        LGT RAIN  37  37 100 SE14      30.10F WCI  29
JOPLIN         LGT RAIN  40  39  97 E7        30.10S FOG
WEST PLAINS    CLOUDY    37  35  92 E5        30.17R WCI  33

$$

IAZ060-094-KSZ022-034>040-054-083-096-NEZ052-066-093-040600-
...KANSAS...SOUTHEAST NEBRASKA AND IOWA...

CITY           SKY/WX    TMP DP  RH WIND       PRES   REMARKS
TOPEKA         LGT RAIN  41  38  89 CALM      30.10F FOG
MANHATTAN      LGT RAIN  41  39  93 S3        30.09S FOG
EMPORIA        RAIN      40  40 100 CALM      30.08S FOG
CHANUTE        LGT RAIN  42  39  89 SE12      30.08F
WICHITA        LGT RAIN  42  41  96 N3        30.07S FOG
OMAHA          LGT SNOW  33  29  85 CALM      30.08F VSB 1
LINCOLN        LGT SNOW  32  32 100 SE5       30.07F FOG     WCI  27
FALLS CITY     LGT RAIN  39  37  92 S9        30.07F WCI  33
LAMONI         LGT RAIN  38  35  89 SE10      30.11S WCI  31
DES MOINES     LGT RAIN  37  33  85 SE12      30.13F WCI  29

$$





USA.gov is the U.S. government's official web portal to all federal, state and local government web resources and services.